Location: A�t Lahcen
(32.8243°N, 5.4246°W)
Time: 02:08:32
(UTC+00:00)

NOSS 3-2 (A) - Pass Details

Date: 27 January 2021
Orbit: 783 x 1425 km, 63.4° (Epoch: 25 February)

Event Time Altitude Azimuth Distance (km) Brightness Sun altitude
Exits shadow 05:00:35 76° 53° (NE) 874 3.2 -29.3°
Drops below altitude 10° 05:06:09 10° 31° (NNE) 2,630 6.0 -28.1°
Sets 05:08:52 0° 31° (NNE) 3,668 6.8 -27.5°
